Cloud_Cover
78 1 0 5 0 12 2 0 0 40 5 0 94 89 72 100 100 96 77 6 4 0 0 0 5 5 5 6 93 90 53 100 100 84 88 100 71 92 15 5 5 5 5
1 0 36 6 6 59 0 0 0 7 12 0 0 2 0 12 2 1 0 0 0 0 0 2 5 5 86 94 27 87 100 75 70 94 100 100 99 8 5 6 21 5 4
0 0 0 0 0 0 3 2 0 0 22 1 3 5 28 2 5 0 0 0 0 3 5 5 18 94 100 98 100 100 39 18 100 92 66 51 5 5 5 98 53 5 0
0 0 61 50 0 2 4 96 6 0 0 0 20 0 0 0 0 0 0 0 3 5 6 34 100 100 100 100 44 100 56 100 54 87 79 5 5 5 5 81 97 4 1
0 0 56 0 19 0 1 0 0 16 0 0 3 38 0 0 2 0 0 0 0 3 5 5 49 98 100 73 60 98 100 91 46 71 5 1 2 4 4 56 37 5 0
0 3 4 20 79 2 0 0 4 100 0 1 10 28 5 4 5 0 0 0 5 6 49 61 33 39 74 99 91 24 8 97 5 6 78 5 5 1 0 98 2 0 0
0 44 0 0 0 0 0 0 0 4 34 0 23 0 97 2 0 0 0 2 4 5 5 7 13 5 5 5 5 12 100 6 22 20 5 26 3 0 0 5 1 0 0
0 0 0 56 100 26 0 0 0 0 9 0 5 15 28 28 0 0 0 0 0 3 0 5 5 5 5 5 5 96 49 73 2 5 5 5 0 0 5 5 0 0 0
0 29 0 0 79 1 0 0 11 0 0 0 98 0 86 11 0 0 0 0 0 4 0 5 5 0 5 1 72 100 21 6 4 4 4 2 0 0 0 0 0 0 0
0 0 0 0 8 0 0 0 95 10 0 0 0 44 0 41 0 0 0 0 0 1 0 5 5 5 11 5 6 73 15 0 5 0 0 0 0 0 0 0 2 5 4
0 35 0 0 0 3 34 0 0 0 0 0 8 0 0 73 0 0 0 0 0 0 3 5 5 4 5 5 4 5 4 0 0 0 0 0 0 3 0 2 5 25 5
59 99 73 0 0 45 69 0 33 0 0 0 0 0 0 27 0 0 0 0 0 0 0 1 2 2 1 0 0 0 1 0 0 0 0 0 0 2 4 5 6 23 26
95 15 51 7 56 44 1 0 0 0 0 0 0 0 0 0 39 0 0 0 0 0 0 0 0 0 0 0 0 0 0 0 0 0 0 0 5 5 5 65 18 100 100
27 17 100 97 99 100 76 1 0 0 0 0 0 0 21 0 2 0 0 15 66 0 0 0 0 0 0 0 0 0 0 0 0 0 4 4 5 5 15 6 73 93 100
39 89 100 100 100 100 91 57 0 0 0 0 0 0 2 0 100 1 16 16 66 0 0 45 20 0 0 0 0 0 0 0 0 0 5 7 5 16 100 14 96 58 40
0 59 100 100 100 100 52 94 9 2 0 2 2 0 0 0 0 0 0 0 7 0 0 41 88 0 0 0 0 0 0 2 1 2 4 5 76 67 93 80 41 5 7
22 38 63 100 100 100 97 86 100 1 5 1 0 0 0 0 0 0 2 0 0 0 26 100 0 1 4 0 0 0 2 52 100 95 74 13 91 94 96 100 100 100 98
0 0 11 100 100 100 100 100 81 2 26 5 5 5 0 0 22 0 0 0 0 0 0 4 0 1 1 0 0 0 1 0 4 76 7 58 71 100 100 100 100 100 100
0 0 0 0 9 63 80 16 3 3 4 5 18 6 21 0 0 4 5 0 0 1 0 0 0 5 5 0 0 0 1 0 5 19 5 26 100 99 95 100 100 100 100
71 60 0 0 0 0 0 0 14 88 15 6 5 2 3 0 0 0 5 5 5 5 1 1 1 1 1 2 1 0 0 5 3 1 5 8 100 100 100 100 100 100 100
100 100 33 0 0 0 0 0 0 4 69 100 45 5 2 0 0 0 4 0 5 5 5 5 0 0 0 5 2 0 0 5 3 4 7 13 9 95 100 100 100 100 100
100 100 100 4 0 0 0 0 0 0 0 0 21 26 5 0 1 38 54 6 5 0 0 5 0 0 2 5 2 0 0 3 6 37 1 5 5 7 100 100 88 100 100
100 100 100 100 22 1 5 26 0 0 0 0 0 0 0 0 0 0 0 1 5 5 2 5 4 0 0 0 0 0 0 5 5 5 27 49 76 100 64 80 71 94 100
100 100 60 99 3 0 0 5 28 0 0 0 0 0 0 0 0 0 0 0 0 0 0 0 0 0 0 0 0 0 0 4 17 5 7 81 72 86 14 34 29 60 64
100 100 59 8 78 82 2 5 75 56 2 0 0 0 0 0 0 0 0 0 0 0 0 0 0 0 0 0 0 0 0 0 5 9 5 5 16 43 33 54 5 5 0
100 100 96 18 14 98 92 77 40 22 43 5 1 0 0 0 0 0 0 0 0 0 0 0 0 0 14 2 0 0 0 0 0 0 5 9 5 5 4 2 20 5 0